ギブス彗星

C/2011 A3 ( Gibbs )

English version
Home page
Updated on March 24, 2012

---------------------------------------------------------------------

・ プロフィール

発見日 2011年1月15日
発見光度 18.4等
発見者 A. R. Gibbs (Catalina)

・ 写真集

・ 軌道要素

Epoch 2011 Dec. 25.0 TT = JDT 2455920.5
T 2011 Dec. 16.08868 TT                                 MPC
q   2.3448850            (2000.0)            P               Q
z  +0.0009427      Peri.  141.16355     -0.01646028     +0.93259858
 +/-0.0000010      Node   124.89054     -0.99145392     +0.03144805
e   0.9977895      Incl.   26.07522     -0.12941477     -0.35954263
From 1437 observations 2011 Jan. 15-2012 Mar. 19, mean residual 0".4.

・ 星図

・ 光度変化

        m1 = 5.5 + 5 logΔ + 15.0 log r

---------------------------------------------------------------------

軌道要素はM.P.E.C. 2012-F59に掲載されたものです。
星図はステラナビゲータ Ver.8 (アストロアーツ) で作成したものです。
光度グラフはComet for Windowsで作成したものです。

---------------------------------------------------------------------

Copyright(C) Seiichi Yoshida (comet@aerith.net). All rights reserved.